Terug naar catalogus

MUOS 5

ActiefMilitairMEO
NORAD 41622·PAYLOAD·🇺🇸 United States

Gelanceerd Jun 24, 2016 vanaf Cape Canaveral Space Force Station

Loading…

Volgende Passages (komende 24 uur)

TLE

VersSource: Space-Track

Epoch: Sep 14, 2026, 13:17 UTC

1 41622U 16041A   26257.55391080 -.00000170  00000-0  00000-0 0  9999
2 41622   2.0208 303.6874 0203708 260.7619 243.5146  1.00272668 37985

Volg MUOS 5 in realtime met AllMySat

Download on the App Store